Location: Unspecified
(33.6682°S, 0.0000°E)
Time: 13:49:25
(UTC+00:00)

Tiros 1 despin weight - Pass Details

Date: 17 June 2019
Orbit: 594 x 642 km, 48.2° (Epoch: 20 July)

Event Time Altitude Azimuth Distance (km) Brightness Sun altitude
Rises 10:27:49 0° 360° (N) 2,899 ? 28.8°
Reaches altitude 10° 10:31:35 10° 31° (NNE) 2,014 ? 29.1°
Maximum altitude 10:33:17 12° 53° (NE) 1,901 ? 29.3°
Drops below altitude 10° 10:34:59 10° 74° (ENE) 2,032 ? 29.4°
Sets 10:38:49 0° 105° (ESE) 2,958 ? 29.7°
